150  
ASUS43 KGRB 211411  
RWRGRB  
 
NORTH-CENTRAL AND NORTHEAST WISCONSIN REGIONAL WEATHER ROUNDUP  
NATIONAL WEATHER SERVICE GREEN BAY WI  
900 AM CDT MON MAY 21 2018  
 
WIZ005-009-010>012-018-019-211500-  
NORTH CENTRAL WISCONSIN  
 
CITY SKY/WX TMP DP RH WIND PRES REMARKS
 
IRONWOOD FAIR 59 33 37 VRB3 30.18F  
MANITOWISH WTR FAIR 59 34 38 SE3 30.18S  
ARBOR VITAE FAIR 59 34 39 SE5 30.18F  
EAGLE RIVER FAIR 58 30 35 E3 30.18S  
LAND O LAKES FAIR 61 28 28 CALM 30.20F  
RHINELANDER FAIR 60 31 33 E8 30.19S  
PHILLIPS FAIR 58 34 40 SE8 30.16F  
ANTIGO FAIR 57 38 49 E9 30.19R  
TOMAHAWK FAIR 57 33 40 SE3 30.18S  
MERRILL FAIR 56 36 47 SE7 30.18F HAZE  

 
 
WIZ013-073-211500-  
NORTHEAST WISCONSIN  
 
CITY SKY/WX TMP DP RH WIND PRES REMARKS
 
IRON MOUNTAIN FAIR 60 33 36 VRB7 30.19F  
MARINETTE NOT AVBL  
OCONTO FAIR 54 34 48 E8 30.20R  

 
 
WIZ017-030-035>037-045-211500-  
CENTRAL WISCONSIN  
 
CITY SKY/WX TMP DP RH WIND PRES REMARKS
 
MEDFORD PTSUNNY 53 33 46 E7 30.16R  
WAUSAU FAIR 55 34 45 E7 30.16S  
MOSINEE PTSUNNY 55 37 50 E9 30.18R  
MARSHFIELD CLOUDY 53 37 54 E10 30.15S  
WISC RAPIDS PTSUNNY 54 36 50 E10 30.17S  
STEVENS POINT NOT AVBL  
WAUPACA FAIR 55 41 59 E5 30.19R  
SHAWANO FAIR 57 37 46 E7 30.19R  
CLINTONVILLE FAIR 55 37 50 E5 30.19R  
WAUTOMA CLOUDY 52 42 69 E6 30.18  

 
 
WIZ038-039-048-051-211500-  
FOX VALLEY  
 
CITY SKY/WX TMP DP RH WIND PRES REMARKS
 
NWS GREEN BAY FAIR 54 42 64 E6 30.19R  
APPLETON PTSUNNY 52 37 58 E7 30.17S  
OSHKOSH CLOUDY 54 49 83 SE8 30.18R  
FOND DU LAC CLOUDY 53 48 83 SE10 30.18R  

 
 
WIZ022-050-052-211500-  
EAST CENTRAL WISCONSIN  
 
CITY SKY/WX TMP DP RH WIND PRES REMARKS
 
EPHRAIM FAIR 54 35 48 E8 30.20S  
WASHINGTON ISL PTSUNNY 55 34 45 NE5 30.21R  
STURGEON BAY FAIR 52 38 58 E8 30.21R  
MANITOWOC NOT AVBL  
SHEBOYGAN CLOUDY 50 47 89 CALM 30.21R  

 
 
LMZ563-521-522-541>543-211500-  
LAKESHORE  
 
STATION/POSITION TIME TEMP WIND PRES VSBY WAVE
 
AIR SEA DIR/SP/G HT/PER  
(UTC) (F) (DEG/KT/KT) (MB) (MI) (FT/S)  
SHEBOYGAN LKSHOR 1400 49 CALM 1023.1R  
KEWAUNEE LKSHORE 1342 45 40/ 4/ 7 1022.2R  
NORTHPORT PIER 1340 47 1023.0S  
SISTER BAY LKSHO 1327 56 70/ 10/ 14 N/A  
MENOMINEE LKSHOR 1336 48 20/ 9/ 10 1022.4F  

 
 
 
CLICK HERE TO GO TO PREVIOUS BULLETINS.

The Nexlab WI Page Main Text Page